• Processing (Info)

  • MPEC 2006-V48 : 2006 VW2

    The following Minor Planet Electronic Circular may be linked-to from your own Web pages, but must not otherwise be redistributed electronically.

    A form allowing access to any MPEC is at the bottom of this page.


    Read MPEC 2006-V47 Read MPEC 2006-V49


    M.P.E.C. 2006-V48                                Issued 2006 Nov. 13, 17:19 UT
    
         The Minor Planet Electronic Circulars contain information on unusual
             minor planets and routine data on comets.  They are published
       on behalf of Commission 20 of the International Astronomical Union by the
              Minor Planet Center, Smithsonian Astrophysical Observatory,
                              Cambridge, MA 02138, U.S.A.
    
                 Prepared using the Tamkin Foundation Computer Network
    
                                  MPC@CFA.HARVARD.EDU
              URL http://cfa-www.harvard.edu/iau/mpc.html  ISSN 1523-6714
    
                                       2006 VW2
    
    Observations:
         K06V02W* C2006 11 11.34397 03 06 27.79 +18 15 48.3          19.5 V EV048G96
         K06V02W  C2006 11 11.35301 03 06 26.53 +18 15 30.2          19.6 V EV048G96
         K06V02W  C2006 11 11.35746 03 06 25.92 +18 15 21.1          19.5 V EV048G96
         K06V02W  C2006 11 11.40197 03 06 19.80 +18 13 50.5          19.5 V EV048G96
         K06V02W  C2006 11 11.40385 03 06 19.54 +18 13 46.4          19.4 V EV048G96
         K06V02W  C2006 11 11.40569 03 06 19.33 +18 13 42.8          19.5 V EV048G96
         K06V02W  C2006 11 11.40758 03 06 19.08 +18 13 39.0          19.4 V EV048G96
         K06V02W  C2006 11 11.44640 03 06 14.65 +18 12 43.3          19.4 V EV048F84
         K06V02W  C2006 11 11.47355 03 06 10.79 +18 11 48.5                 EV048F84
         K06V02W  C2006 11 11.95470 03 05 09.53 +17 55 05.0          19.1   EV048176
         K06V02W  C2006 11 11.95625 03 05 09.30 +17 55 01.9          19.3   EV048176
         K06V02W  C2006 11 11.95781 03 05 09.07 +17 54 58.7          19.3   EV048176
         K06V02W  C2006 11 11.95937 03 05 08.88 +17 54 55.7          19.1   EV048176
         K06V02W  C2006 11 12.24537 03 04 31.61 +17 45 08.3          18.4 R EV048H36
         K06V02W  C2006 11 12.24910 03 04 31.35 +17 45 02.1          19.7 V EV048703
         K06V02W  C2006 11 12.25308 03 04 30.40 +17 44 50.8          19.0 R EV048H36
         K06V02W  C2006 11 12.25470 03 04 30.58 +17 44 51.6          19.8 V EV048703
         K06V02W  C2006 11 12.26036 03 04 29.80 +17 44 39.1          19.8 V EV048703
         K06V02W  C2006 11 12.28236 03 04 26.76 +17 43 54.0          19.8 V EV048G96
         K06V02W  C2006 11 12.28682 03 04 26.11 +17 43 44.6          19.6 V EV048G96
         K06V02W  C2006 11 12.28816 03 04 25.94 +17 43 43.0          19.9 R EV048854
         K06V02W  C2006 11 12.29135 03 04 25.50 +17 43 35.2          19.9 V EV048G96
         K06V02W  C2006 11 12.29295 03 04 25.25 +17 43 31.6          19.6 R EV048854
         K06V02W  C2006 11 12.29587 03 04 24.85 +17 43 26.1          19.8 V EV048G96
         K06V02W  C2006 11 12.29775 03 04 24.60 +17 43 22.1          19.6 R EV048854
         K06V02W  C2006 11 12.51164 03 03 56.65 +17 36 28.7          19.8 R EV048474
         K06V02W  C2006 11 12.51476 03 03 56.24 +17 36 21.5          19.0 R EV048474
         K06V02W  C2006 11 12.51811 03 03 55.75 +17 36 15.3          19.8 R EV048474
         K06V02W  C2006 11 12.58986 03 03 47.01 +17 33 19.7          20.0 V EV048D35
         K06V02W  C2006 11 12.59135 03 03 46.82 +17 33 16.6          20.1 V EV048D35
         K06V02W  C2006 11 12.59286 03 03 46.59 +17 33 13.7          20.2 V EV048D35
         K06V02W  C2006 11 12.86145 03 03 11.34 +17 23 42.5          19.5 R EV048473
         K06V02W  C2006 11 12.86883 03 03 10.26 +17 23 27.0          19.4 R EV048473
         K06V02W  C2006 11 12.87621 03 03 09.26 +17 23 11.3          19.5 R EV048473
         K06V02W  C2006 11 13.18635 03 02 28.62 +17 12 24.0          20.6 R EV048448
         K06V02W  C2006 11 13.19655 03 02 27.26 +17 12 03.3          19.2 R EV048448
         K06V02W  C2006 11 13.20786 03 02 25.59 +17 11 39.0          19.7 R EV048448
         K06V02W 5C2006 11 13.24421 03 02 20.74 +17 10 21.6          19.8 R EV048673
         K06V02W  C2006 11 13.24755 03 02 20.09 +17 10 15.0          20.0 V EV048G96
         K06V02W 5C2006 11 13.24815 03 02 20.18 +17 10 13.8                 EV048673
         K06V02W  C2006 11 13.24968 03 02 19.82 +17 10 11.1          20.1 V EV048G96
         K06V02W 5C2006 11 13.25301 03 02 19.57 +17 10 02.9                 EV048673
    
    Observer details:
    176 Observatori Astronomic de Consell.  Observers A. Lopez, R. Pacheco.
        0.41-m f/4 reflector + CCD.
    448 Desert Moon Observatory.  Observer B. L. Stevens.  0.3-m
        Schmidt-Cassegrain + CCD.
    473 Remanzacco.  Observers G. Sostero, E. Guido.  0.45-m f/4.4 Newtonian
        reflector + CCD.
    474 Mount John Observatory, Lake Tekapo.  Observer A. C. Gilmore.  1.0-m f/7.7
        reflector + CCD.
    673 Table Mountain Observatory, Wrightwood.  Observer J. Young.  0.61-m f/16
        Cassegrain + CCD.
    703 Catalina Sky Survey.  Observer A. R. Gibbs.  Measurers E. C. Beshore,
        E. J. Christensen, G. J. Garradd, A. R. Gibbs, A. D. Grauer, R. E. Hill,
        R. A. Kowalski, S. M. Larson, R. H. McNaught.  0.68-m Schmidt + CCD.
    854 Sabino Canyon Observatory, Tucson.  Observer J. E. McGaha.  0.36-m f/10.0
        Schmidt-Cassegrain + CCD.
    D35 Lulin Observatory.  Observers H.-C. Lin, C.-S. Lin, Q.-z. Ye.  Measurer
        Q.-z. Ye.  0.41-m f/8.8 Ritchey-Chretien + 2Kx2K CCD.
    F84 Hibiscus Observatory, Punaauia.  Observer N. Teamo.  Measurer J. C. Pelle.
        0.35-m f/3.88 Schmidt-Cassegrain + 1392x1040 CCD.
    G96 Mt. Lemmon Survey.  Observer E. J. Christensen.  Measurers E. C. Beshore,
        E. J. Christensen, G. J. Garradd, A. R. Gibbs, A. D. Grauer, R. E. Hill,
        R. A. Kowalski, S. M. Larson, R. H. McNaught.  1.5-m reflector + CCD.
    H36 Sandlot Observatory, Scranton.  Observer G. Hug.  0.30-m
        Schmidt-Cassegrain + CCD.
    
    Orbital elements:
    2006 VW2                                            PHA, Earth MOID = 0.0168 AU
    Epoch 2006 Sept. 22.0 TT = JDT 2454000.5                MPC
    M 236.06696              (2000.0)            P               Q
    n   0.71475749     Peri.  299.55149     -0.97278148     -0.18862893
    a   1.2388828      Node   229.91885     +0.22052117     -0.93199952
    e   0.2976686      Incl.   10.13151     -0.07118007     -0.30950933
    P   1.38           H   21.3           G   0.15           U   8
    Residuals in seconds of arc
    061111 G96  0.2+  0.3-    061112 703  0.8-  0.3-    061112 D35  0.1+  0.1-
    061111 G96  0.0   0.1-    061112 H36  0.7-  0.9-    061112 D35  0.4+  0.1-
    061111 G96  0.0   0.2-    061112 703  0.6-  0.7+    061112 D35  0.2+  0.1+
    061111 G96  0.3-  0.0     061112 703  0.4-  0.2-    061112 473  0.0   0.1+
    061111 G96  0.4-  0.3-    061112 G96  0.2+  0.0     061112 473  0.8-  0.0
    061111 G96  0.2+  0.1-    061112 G96  0.2-  0.2-    061112 473  0.5-  0.4-
    061111 G96  0.3+  0.1-    061112 854  0.1+  0.9+    061113 448  0.4-  0.2-
    061111 F84  0.8+  0.0     061112 G96  0.2+  0.2-    061113 448  0.6+  0.5+
    061111 F84  0.4-  0.5+    061112 854  0.2-  0.6-    061113 448  0.4-  0.2-
    061111 176  0.1+  0.2+    061112 G96  0.0   0.0     061113 673  0.0   0.1+
    061111 176  0.1-  0.2+    061112 854  0.2+  0.1-    061113 G96  0.2-  0.6-
    061111 176  0.3-  0.2+    061112 474  0.1+  0.2+    061113 673  0.1-  0.5+
    061111 176  0.1+  0.4+    061112 474  0.4+  0.5-    061113 G96  0.2+  0.0
    061112 H36  1.2+  0.7+    061112 474  0.1+  0.3+    061113 673  1.0+  0.1-
    
    Ephemeris:
    2006 VW2                 a,e,i = 1.24, 0.30, 10                  q = 0.8701
    Date    TT    R. A. (2000) Decl.     Delta      r     Elong.  Phase     V
    2006 11 11    03 07.21   +18 27.4    0.342    1.332   178.6     1.1    19.8
    2006 11 21    02 44.72   +12 16.0    0.311    1.290   163.7    12.4    20.1
    2006 12 01    02 23.31   +05 30.0    0.299    1.245   145.9    26.4    20.3
    2006 12 11    02 07.21   -00 41.7    0.300    1.198   129.5    39.4    20.6
    2006 12 21    01 58.21   -05 41.0    0.309    1.151   115.3    50.6    20.9
    2006 12 31    01 56.20   -09 27.2    0.319    1.103   103.5    60.1    21.2
    2007 01 10    01 59.73   -12 21.7    0.325    1.055    93.6    68.5    21.4
    2007 01 20    02 07.06   -14 48.0    0.325    1.009    85.1    76.2    21.5
    2007 01 30    02 16.42   -17 08.7    0.316    0.967    77.5    83.9    21.7
    2007 02 09    02 25.52   -19 45.5    0.298    0.930    70.5    92.0    21.8
    2007 02 19    02 31.56   -22 55.6    0.272    0.901    63.5   100.8    21.9
    
    Kyle E. Smalley              (C) Copyright 2006 MPC           M.P.E.C. 2006-V48
    

    Read MPEC 2006-V47 Read MPEC 2006-V49


    MPEC number:

    Enter an MPEC number in one of the following forms:

    • 1997-B01 (the full form)
    • J97B01 (the packed version of the full form)
    • B01 (the abbreviated form)